#timestamp,LO_Frequency,Hit,StdDev 
1711015215.3,286046976.8,N
1711015235.2,286046975.4,N
1711015255.0,286046974.2,N
1711015255.9,286046974.2,N
1711015275.8,286046977.0,N
1711015295.6,286046977.1,N
1711015315.4,286046974.6,N
1711015335.3,286046976.7,N
1711015355.1,286046977.0,N
1711015375.8,286046976.5,N
1711015395.7,286046976.4,N
1711015415.5,286046974.5,N
1711015435.4,286046974.6,N
1711015455.2,286046975.8,N
1711015475.0,286046980.2,N
1711015475.9,286046980.2,N
1711015495.8,286046984.6,N
1711015515.6,286046992.0,N
1711015535.4,286046995.0,N
1711015555.3,286046988.5,N
1711015575.1,286046982.1,N
1711015595.9,286046980.8,N
1711015615.7,286046982.0,Y
1711015635.5,286047001.0,P
1711015655.4,286047002.0,N
1711015675.2,286047001.9,N
1711015695.0,286047000.7,N
1711015696.0,286047000.7,N
1711015715.8,286046998.7,N
1711015735.6,286046998.1,N
1711015755.5,286046997.7,N
1711015775.3,286046992.6,N
1711015795.1,286046989.0,N
1711015815.9,286046988.1,N
1711015835.7,286046982.1,N
1711015855.5,286046982.5,N
1711015875.4,286046983.9,N
1711015895.2,286046982.2,N
1711015915.1,286046983.2,N
1711015916.0,286046983.2,N
1711015935.8,286046983.9,N
1711015955.6,286046983.6,N
1711015975.5,286046981.8,N
1711015995.3,286046979.9,N
1711016015.2,286046979.7,N
1711016035.9,286046977.4,N
1711016055.7,286046972.8,Y
1711016075.6,286046980.5,P
1711016095.4,286046979.1,P
1711016115.2,286046977.7,P
1711016135.1,286046978.8,Y
1711016136.0,286046978.8,P
1711016155.8,286046994.1,P
1711016175.7,286046994.4,N
1711016195.5,286046988.6,N
1711016215.3,286046987.9,N
1711016235.2,286046988.1,N
1711016255.0,286046985.5,N
1711016255.9,286046985.5,N
1711016275.8,286046983.7,Y
1711016295.6,286046998.0,P
1711016315.4,286046994.7,N
1711016335.3,286046990.5,N
1711016355.1,286046993.9,N
1711016375.8,286046994.4,N
1711016395.7,286046992.5,N
1711016415.5,286046989.3,Y
1711016435.4,286047000.4,P
1711016455.2,286046996.7,N
1711016475.0,286046994.4,N
1711016475.9,286046994.4,N
1711016495.8,286046993.7,N
1711016515.6,286046998.0,N
1711016535.4,286046995.5,N
1711016555.3,286046996.6,N
1711016575.1,286046995.7,N
1711016595.9,286046992.9,Y
1711016615.7,286046993.9,P
1711016635.5,286046992.8,P
1711016655.4,286046992.0,P
1711016675.2,286046989.4,Y
1711016695.1,286046991.9,P
1711016696.0,286046991.9,P
1711016715.8,286046990.4,P
1711016735.6,286046994.6,Y
1711016755.5,286047000.4,P
1711016775.3,286046996.7,N
1711016795.1,286046995.7,N
1711016815.9,286046995.3,N
1711016835.7,286046996.3,N
1711016855.6,286046990.7,Y
1711016875.4,286046992.2,P
1711016895.2,286046990.8,P
1711016915.1,286046990.8,P
1711016916.0,286046990.8,Y
1711016935.8,286046995.8,P
1711016955.7,286046992.5,P
1711016975.5,286046988.5,P
1711016995.3,286046988.5,Y
1711017015.2,286046995.5,P
1711017035.0,286046996.9,N
1711017035.9,286046996.9,N
1711017055.7,286046995.3,N
1711017075.6,286046993.3,Y
1711017095.4,286047000.3,P
1711017115.3,286046999.4,N
1711017135.1,286046996.1,N
1711017136.0,286046996.1,N
1711017155.8,286046994.3,N
1711017175.7,286046993.9,N
1711017195.5,286046994.5,N
1711017215.3,286047000.7,N
1711017235.2,286046996.6,N
1711017255.0,286046999.0,N
1711017255.9,286046999.0,N
1711017275.8,286046997.8,N
1711017295.6,286046993.7,N
1711017315.4,286046992.0,Y
1711017335.3,286046993.8,P
1711017355.1,286046996.1,N
1711017375.9,286046994.1,P
1711017395.7,286046991.5,Y
1711017415.5,286046994.7,P
1711017435.4,286046992.6,P
1711017455.2,286046991.9,P
1711017475.0,286046993.8,Y
1711017475.9,286046993.8,P
1711017495.8,286047000.4,P
1711017515.6,286047002.1,N
1711017535.5,286047004.0,N
1711017555.3,286047004.0,N
1711017575.1,286047004.0,N
1711017595.9,286047003.2,N
1711017615.7,286047001.8,N
1711017635.5,286047003.9,N
1711017655.4,286046999.7,N
1711017675.2,286046997.4,N
1711017695.1,286046995.2,N
1711017696.0,286046995.2,N
1711017715.8,286046995.3,N
1711017735.6,286046991.8,N
1711017755.5,286046991.3,N
1711017775.3,286046990.3,N
1711017795.1,286046988.9,N
1711017815.9,286046989.2,N
1711017835.7,286046991.7,N
1711017855.6,286046990.9,N
1711017875.4,286046989.6,N
1711017895.2,286046989.7,N
1711017915.1,286046989.8,N
1711017916.0,286046989.8,N
1711017935.8,286046992.6,N
1711017955.6,286046988.8,N
1711017975.5,286046990.7,N
1711017995.3,286046989.8,N
1711018015.2,286046988.2,N
1711018035.9,286046985.7,N
1711018055.7,286046985.3,N
1711018075.6,286046986.4,N
1711018095.4,286046988.3,N
1711018115.2,286046983.9,N
1711018135.1,286046982.5,Y
1711018136.0,286046982.5,P
1711018155.8,286046989.1,N
1711018175.7,286046988.9,N
1711018195.5,286046986.9,Y
1711018215.3,286047000.9,P
1711018235.2,286046999.3,N
1711018255.0,286046999.1,N
1711018255.9,286046999.1,N
1711018275.7,286046995.9,N
1711018295.6,286046995.3,N
1711018315.4,286046996.9,N
1711018335.3,286046993.8,N
1711018355.1,286046996.3,N
1711018356.0,286046996.3,N
1711018375.8,286046996.2,N
1711018395.7,286046991.9,N
1711018415.5,286046990.3,N
1711018435.4,286046988.6,Y
1711018455.2,286046991.7,P
1711018475.0,286046994.2,N
1711018476.0,286046994.2,P
1711018495.8,286046992.6,Y
1711018515.6,286046997.1,P
1711018535.5,286046998.8,N
1711018555.3,286047002.9,N
1711018575.1,286047005.5,N
1711018595.9,286047005.0,N
1711018615.7,286047002.9,N
1711018635.6,286047000.2,N
1711018655.4,286046999.8,N
1711018675.3,286047002.1,N
1711018695.1,286047002.0,N
1711018715.8,286047004.3,N
1711018735.7,286047000.3,N
1711018755.5,286046997.6,N
1711018775.4,286046993.5,N
1711018795.2,286046991.7,N
